Location: B?dimalle
(17.1788°N, 80.5377°E)
Time: 11:02:44
(UTC+00:00)

Tiros 1 despin weight - Pass Details

Date: 25 February 2026
Orbit: 556 x 593 km, 48.2° (Epoch: 10 March)

Event Time Altitude Azimuth Distance (km) Brightness Sun altitude
Rises 04:08:47 0° 206° (SSW) 2,789 ? 42.1°
Reaches altitude 10° 04:11:11 10° 198° (SSW) 1,885 ? 42.6°
Maximum altitude 04:15:11 38° 129° (SE) 885 ? 43.4°
Drops below altitude 10° 04:19:09 10° 61° (ENE) 1,865 ? 44.2°
Sets 04:21:30 0° 53° (NE) 2,756 ? 44.7°
